DW3809 Weather Reports


time (UTC)temp
C
wind
direction
speed
KPH
gust
KPH
rain 1hr
cm
rain 24hr
cm
rain mn
cm
humidity
%
barometer
mb
20260508054502 10 234 0.0 0.0 0.00 0.03 0.03 51 1007.8
20260508053001 11 234 0.0 1.6 0.00 0.03 0.03 47 1008.0
20260508051602 12 254 0.0 4.8 0.00 0.03 0.03 44 1008.0
20260508050100 11 239 0.0 1.6 0.00 0.03 0.03 47 1008.1
20260508044600 11 246 0.0 1.6 0.00 0.03 0.03 46 1008.3
20260508043101 12 240 0.0 1.6 0.00 0.03 0.03 46 1008.5
20260508041558 12 265 1.6 6.4 0.00 0.03 0.03 41 1008.8
20260508040105 12 256 3.2 8.0 0.00 0.03 0.03 40 1008.9
20260508034558 12 241 0.0 1.6 0.00 0.03 0.03 43 1008.9
20260508033058 12 240 0.0 1.6 0.00 0.03 0.03 42 1008.8
20260508031605 12 217 0.0 1.6 0.00 0.03 0.03 41 1008.7
20260508030105 12 232 0.0 0.0 0.00 0.03 0.03 43 1008.6
20260508024555 13 232 0.0 1.6 0.00 0.03 0.03 40 1008.4
20260508023054 13 241 0.0 0.0 0.00 0.03 0.03 36 1008.3
20260508021600 15 241 0.0 1.6 0.00 0.03 0.03 32 1008.3
20260508020053 15 240 0.0 3.2 0.00 0.03 0.03 30 1008.2
20260508014552 16 260 0.0 4.8 0.00 0.03 0.03 30 1008.2
20260508013051 16 264 0.0 1.6 0.00 0.03 0.03 29 1008.0
20260508011554 17 256 1.6 4.8 0.00 0.03 0.03 27 1008.2
20260508010050 17 216 0.0 4.8 0.00 0.03 0.03 26 1008.2
20260508004549 17 258 1.6 4.8 0.00 0.03 0.03 27 1008.1
20260508003048 17 69 1.6 6.4 0.00 0.03 0.03 27 1008.1
20260508001546 18 264 3.2 12.9 0.00 0.03 0.03 24 1008.3
20260508000101 19 257 1.6 12.9 0.00 0.03 0.03 25 1008.5
20260507234547 18 279 4.8 12.9 0.00 0.08 0.03 26 1008.5
20260507233042 17 263 8.0 17.7 0.00 0.08 0.03 26 1008.6
20260507231545 18 284 1.6 14.5 0.00 0.08 0.03 26 1008.8
20260507230039 18 242 3.2 9.7 0.00 0.08 0.03 26 1009.0
20260507224539 18 260 4.8 12.9 0.00 0.13 0.03 26 1009.1
20260507223038 20 260 4.8 16.1 0.00 0.13 0.03 26 1009.3
20260507221536 20 275 4.8 14.5 0.00 0.13 0.03 25 1009.6
20260507220033 20 290 6.4 17.7 0.00 0.13 0.03 26 1010.0
20260507214532 20 272 6.4 14.5 0.00 0.36 0.03 25 1010.2
20260507213037 20 255 8.0 19.3 0.00 0.36 0.03 27 1010.2
20260507211541 19 261 1.6 12.9 0.00 0.36 0.03 28 1010.8
20260507210026 19 248 0.0 8.0 0.00 0.36 0.03 31 1011.2
20260507204524 18 239 1.6 8.0 0.00 0.48 0.03 28 1011.6
20260507203021 18 263 3.2 9.7 0.00 0.48 0.03 28 1012.1
20260507201519 18 249 3.2 11.3 0.00 0.48 0.03 29 1012.5
20260507200017 18 261 4.8 9.7 0.00 0.48 0.03 32 1012.7
20260507194515 17 252 3.2 12.9 0.00 0.51 0.03 32 1013.0
20260507193018 17 261 3.2 12.9 0.00 0.51 0.03 32 1013.2
20260507191511 17 194 1.6 16.1 0.00 0.51 0.03 31 1013.5
20260507190008 17 246 1.6 16.1 0.00 0.51 0.03 33 1013.9
20260507184506 17 269 3.2 12.9 0.00 0.51 0.03 29 1014.3
20260507183005 16 247 3.2 6.4 0.00 0.51 0.03 28 1014.3
20260507181600 16 190 0.0 4.8 0.00 0.51 0.03 28 1014.5
20260507180108 16 282 0.0 4.8 0.00 0.51 0.03 29 1014.6
20260507174630 16 246 1.6 6.4 0.00 0.51 0.03 29 1015.1
20260507173055 16 244 0.0 6.4 0.00 0.51 0.03 33 1015.7
20260507171605 16 288 3.2 11.3 0.00 0.51 0.03 29 1016.2
20260507170048 16 225 0.0 6.4 0.00 0.51 0.03 29 1016.5
20260507164551 15 289 0.0 8.0 0.00 0.51 0.03 27 1016.7
20260507163043 15 240 4.8 11.3 0.00 0.51 0.03 28 1016.8
20260507161542 14 258 3.2 8.0 0.00 0.51 0.03 30 1017.1
20260507160101 13 260 1.6 6.4 0.03 0.51 0.03 29 1017.4
20260507154536 13 262 1.6 8.0 0.03 0.51 0.03 29 1017.6
20260507153031 12 296 3.2 8.0 0.03 0.51 0.03 32 1017.7
20260507151529 12 239 1.6 11.3 0.03 0.51 0.03 38 1017.8
20260507150028 11 254 1.6 6.4 0.00 0.48 0.00 38 1018.2
20260507144521 11 246 1.6 4.8 0.00 0.48 0.00 42 1018.2
20260507143019 10 267 0.0 1.6 0.00 0.48 0.00 41 1018.5
20260507141515 9 259 1.6 6.4 0.00 0.48 0.00 43 1018.5
20260507140026 8 119 0.0 3.2 0.00 0.48 0.00 47 1018.7
20260507134506 6 237 0.0 3.2 0.00 0.48 0.00 49 1018.7
20260507133002 5 244 0.0 3.2 0.00 0.48 0.00 52 1018.7
20260507131621 4 234 0.0 4.8 0.00 0.48 0.00 55 1018.6
20260507130100 3 239 0.0 4.8 0.00 0.48 0.00 57 1018.7
20260507124555 2 254 0.0 4.8 0.00 0.48 0.00 58 1018.5
20260507123047 1 236 0.0 4.8 0.00 0.48 0.00 60 1018.5
20260507121546 1 249 0.0 3.2 0.00 0.48 0.00 60 1018.5
20260507120044 1 211 0.0 4.8 0.00 0.48 0.00 62 1018.3
20260507114542 0 104 0.0 1.6 0.00 0.48 0.00 63 1018.4
20260507113103 0 257 0.0 4.8 0.00 0.48 0.00 61 1018.5
20260507111541 0 257 0.0 3.2 0.00 0.48 0.00 63 1018.5
20260507110041 0 235 0.0 1.6 0.00 0.48 0.00 62 1018.6
20260507104542 0 270 0.0 4.8 0.00 0.48 0.00 62 1018.3
20260507103037 0 257 0.0 4.8 0.00 0.48 0.00 63 1018.3
20260507101535 0 140 0.0 3.2 0.00 0.48 0.00 70 1018.5
20260507100042 -2 111 0.0 1.6 0.00 0.48 0.00 77 1018.7
20260507094531 -1 200 0.0 0.0 0.00 0.48 0.00 76 1018.5
20260507093034 -1 165 0.0 0.0 0.00 0.48 0.00 77 1018.6
20260507091533 -2 165 0.0 0.0 0.00 0.48 0.00 84 1018.8
20260507090026 -3 196 0.0 0.0 0.00 0.48 0.00 86 1019.0
20260507084542 -3 151 0.0 1.6 0.00 0.48 0.00 88 1019.0
20260507083025 -3 171 0.0 0.0 0.00 0.48 0.00 89 1019.1
20260507081521 -3 190 0.0 0.0 0.00 0.48 0.00 91 1019.1
20260507080019 -3 191 0.0 0.0 0.00 0.48 0.00 91 1019.4
20260507074518 -3 204 0.0 0.0 0.00 0.48 0.00 92 1019.5
20260507073022 -3 204 0.0 0.0 0.00 0.48 0.00 92 1019.6
20260507071517 -3 211 0.0 1.6 0.00 0.48 0.00 92 1019.6
20260507070019 -2 136 0.0 0.0 0.00 0.48 0.00 92 1019.7
20260507064512 -2 135 0.0 1.6 0.00 0.48 0.00 92 1019.8
20260507063013 -2 203 0.0 1.6 0.00 0.48 0.00 92 1019.7
20260507061507 -2 198 0.0 0.0 0.00 0.48 0.00 91 1019.8
20260507060006 -2 198 0.0 0.0 0.00 0.48 0.00 91 1019.6